Printer-friendly version

IAU Minor Planet Center

Minor Planet Center

MPEC 2006-S88 : 2006 SB142

The following Minor Planet Electronic Circular may be linked-to from your own Web pages, but must not otherwise be redistributed electronically.


Read MPEC 2006-S87 Read MPEC 2006-S89


M.P.E.C. 2006-S88                                Issued 2006 Sept. 29, 17:15 UT

     The Minor Planet Electronic Circulars contain information on unusual
         minor planets and routine data on comets.  They are published
   on behalf of Commission 20 of the International Astronomical Union by the
          Minor Planet Center, Smithsonian Astrophysical Observatory,
                          Cambridge, MA 02138, U.S.A.

                  Supported in part by the Brinson Foundation
                  Supported in part by the TABASGO Foundation
             Prepared using the Tamkin Foundation Computer Network

                              MPC@CFA.HARVARD.EDU
          URL http://cfa-www.harvard.edu/iau/mpc.html  ISSN 1523-6714

                                  2006 SB142

Observations:
     K06SE2B* C2006 09 28.20763 00 25 04.14 -00 16 53.3          20.0 V ES088691
     K06SE2B  C2006 09 28.23714 00 25 03.30 -00 16 06.4          20.1 V ES088691
     K06SE2B  C2006 09 28.25456 00 25 02.77 -00 15 38.5          20.1 V ES088691
     K06SE2B  C2006 09 29.21152 00 24 43.96 +00 10 12.5          19.8 R ES088734
     K06SE2B  C2006 09 29.21445 00 24 43.85 +00 10 17.3          19.6 R ES088734
     K06SE2B  C2006 09 29.21739 00 24 43.78 +00 10 22.0          20.0 R ES088734
     K06SE2B 5C2006 09 29.23021 00 24 43.98 +00 10 45.8          20.0 R ES088673
     K06SE2B 5C2006 09 29.23530 00 24 43.84 +00 10 53.1                 ES088673
     K06SE2B  C2006 09 29.23587 00 24 43.69 +00 10 55.5                 ES088291
     K06SE2B  C2006 09 29.23999 00 24 43.53 +00 11 02.5                 ES088291
     K06SE2B 5C2006 09 29.24097 00 24 43.63 +00 11 03.1                 ES088673
     K06SE2B  C2006 09 29.24379 00 24 43.46 +00 11 08.4                 ES088291
     K06SE2B 5C2006 09 29.24803 00 24 43.47 +00 11 13.4                 ES088673

Observer details:
291 LPL/Spacewatch II.  Observer T. H. Bressi.  1.8-m f/2.7 reflector + CCD.
673 Table Mountain Observatory, Wrightwood.  Observer J. Young.  0.61-m f/16
    Cassegrain + CCD.
691 Steward Observatory, Kitt Peak.  Observer T. H. Bressi.  0.9-m f/3
    reflector + CCD.
734 Farpoint Observatory.  Observer G. Hug.  Measurer D. Tibbets.  0.7-m
    reflector + CCD.

Orbital elements:
2006 SB142                                               Earth MOID = 0.2144 AU
Epoch 2006 Sept. 22.0 TT = JDT 2454000.5                MPC
M 346.37238              (2000.0)            P               Q
n   0.26334718     Peri.   35.36758     +0.70843604     -0.70541847
a   2.4105544      Node     9.59581     +0.61259890     +0.59881497
e   0.5051249      Incl.    7.73332     +0.35048674     +0.37921684
P   3.74           H   22.1           G   0.15           U   9
Residuals in seconds of arc
060928 691  0.1+  0.2+    060929 734  0.3+  0.1-    060929 673  0.6-  0.3+
060928 691  0.1+  0.1-    060929 673  0.0   0.7+    060929 291  0.2+  0.1-
060928 691  0.2-  0.1-    060929 673  0.1+  0.4-    060929 673  0.1+  1.1-
060929 734  0.4+  0.1+    060929 291  0.1+  0.0
060929 734  0.1+  0.1+    060929 291  0.4-  0.2+

Ephemeris:
2006 SB142               a,e,i = 2.41, 0.51, 8                   q = 1.1929
Date    TT    R. A. (2000) Decl.     Delta      r     Elong.  Phase     V
2006 09 22    00 26.74   -02 46.8    0.320    1.322   171.9     6.2    20.7
2006 10 02    00 23.77   +01 30.2    0.278    1.279   177.3     2.1    20.1
2006 10 12    00 20.46   +07 06.7    0.250    1.244   168.2     9.4    20.2
2006 10 22    00 19.26   +13 45.7    0.235    1.217   158.8    17.2    20.3
2006 11 01    00 23.05   +20 48.7    0.232    1.200   150.5    24.0    20.4
2006 11 11    00 33.97   +27 29.0    0.240    1.193   144.1    29.1    20.7
2006 11 21    00 52.79   +33 06.9    0.258    1.196   139.6    32.4    20.9
2006 12 01    01 19.11   +37 21.5    0.286    1.210   136.7    34.0    21.2
2006 12 11    01 51.05   +40 07.8    0.323    1.234   134.8    34.5    21.5
2006 12 21    02 25.99   +41 31.9    0.370    1.266   133.2    34.5    21.9

Timothy B. Spahr             (C) Copyright 2006 MPC           M.P.E.C. 2006-S88

Read MPEC 2006-S87 Read MPEC 2006-S89


Our Web policy. Index to the CBAT/MPC/ICQ pages.


Valid HTML 4.01!